Weather History for Dublin, VA

Change the Weather History Date:

Tuesday, February 18, 2014

  Actual Average (KBCB) Record (KBCB)
Temperature  
Mean Temperature 38 °F 35 °F  
Max Temperature 50 °F 46 °F 65 °F (1976)
Min Temperature 26 °F 24 °F -2 °F (1958)
Degree Days  
Heating Degree Days 27 30  
Month to date heating degree days 570  
Since 1 July heating degree days 3757  
Cooling Degree Days 0 0  
Month to date cooling degree days 0  
Year to date cooling degree days 0  
Moisture  
Dew Point 23 °F    
Average Humidity 56    
Maximum Humidity 100    
Minimum Humidity 29    
Precipitation  
Precipitation 0.00 in 0.10 in 0.75 in (2000)
Month to date precipitation 1.82  
Year to date precipitation 4.90  
Snow  
Snow 0.00 in - - ()
Month to date snowfall  
Since 1 July snowfall  
Snow Depth -    
Sea Level Pressure  
Sea Level Pressure 30.11 in    
Wind  
Wind Speed 5 mph (SW)    
Max Wind Speed 16 mph    
Max Gust Speed 24 mph    
Visibility 10 miles    
Events      
T = Trace of Precipitation, MM = Missing Value Source: NWS Daily Summary

Daily Weather History Graph

Daily Weather History Graph

Search for Another Location

Airport:

Trip Planner

Search our weather history database for the weather conditions in past years. The results will help you decide how hot, cold, wet, or windy it might be!

Date:

Astronomy

Feb. 18, 2014 Rise Set
Actual Time 7:07 AM EST 6:05 PM EST
Civil Twilight 6:41 AM EST 6:32 PM EST
Nautical Twilight 6:11 AM EST 7:02 PM EST
Astronomical Twilight 5:40 AM EST 7:32 PM EST
Moon 9:51 PM EST (2/18) 8:45 AM EST (2/18)
Length of Visible Light 11h 50m
Length of Day
10h 57m
Waning Gibbous, 87% of the Moon is Illuminated
Feb 18
Waning Gibbous
Feb 22
Last Quarter
Mar 1
New
Mar 8
First Quarter
Mar 16
Full

Hourly Weather History & Observations

Time (EST) Temp. Windchill Dew Point Humidity Pressure Visibility Wind Dir Wind Speed Gust Speed Precip Events Conditions
12:15 AM 33.8 °F 27.7 °F 26.6 °F 75% 30.11 in 10.0 mi South 6.9 mph - N/A   Overcast
12:35 AM 33.8 °F 28.6 °F 26.6 °F 75% 30.11 in 10.0 mi South 5.8 mph - N/A   Overcast
12:55 AM 33.8 °F 28.6 °F 26.6 °F 75% 30.10 in 10.0 mi SSW 5.8 mph - N/A   Overcast
1:15 AM 33.8 °F 27.7 °F 28.4 °F 81% 30.08 in 10.0 mi South 6.9 mph - N/A   Overcast
1:35 AM 33.8 °F 27.7 °F 28.4 °F 81% 30.07 in 10.0 mi SW 6.9 mph - N/A   Overcast
1:55 AM 33.8 °F 30.8 °F 28.4 °F 81% 30.06 in 10.0 mi SW 3.5 mph - N/A   Overcast
2:15 AM 33.8 °F - 28.4 °F 81% 30.06 in 10.0 mi Calm Calm - N/A   Overcast
2:35 AM 33.8 °F 29.6 °F 30.2 °F 87% 30.06 in 10.0 mi WNW 4.6 mph - N/A   Overcast
2:55 AM 33.8 °F 30.8 °F 28.4 °F 81% 30.05 in 10.0 mi WSW 3.5 mph - N/A   Scattered Clouds
3:15 AM 33.8 °F - 30.2 °F 87% 30.05 in 10.0 mi Calm Calm - N/A   Mostly Cloudy
3:35 AM 30.2 °F - 28.4 °F 93% 30.06 in 10.0 mi Calm Calm - N/A   Scattered Clouds
3:55 AM 28.4 °F - 26.6 °F 93% 30.06 in 10.0 mi Calm Calm - N/A   Clear
4:15 AM 28.4 °F - 26.6 °F 93% 30.06 in 7.0 mi Calm Calm - N/A   Clear
4:35 AM 28.4 °F 24.6 °F 26.6 °F 93% 30.06 in 7.0 mi ENE 3.5 mph - N/A   Clear
4:55 AM 26.6 °F - 26.6 °F 100% 30.07 in 7.0 mi Calm Calm - N/A   Clear
5:15 AM 28.4 °F 23.3 °F 28.4 °F 100% 30.07 in 10.0 mi East 4.6 mph - N/A   Clear
5:35 AM 28.4 °F 23.3 °F 28.4 °F 100% 30.08 in 10.0 mi SSE 4.6 mph - N/A   Clear
5:55 AM 30.2 °F - 28.4 °F 93% 30.10 in 10.0 mi Calm Calm - N/A   Clear
6:15 AM 33.8 °F - 26.6 °F 75% 30.11 in 10.0 mi Calm Calm - N/A   Clear
6:35 AM 30.2 °F 26.7 °F 24.8 °F 80% 30.10 in 10.0 mi SSE 3.5 mph - N/A   Clear
6:55 AM 32.0 °F - 23.0 °F 69% 30.11 in 10.0 mi Calm Calm - N/A   Clear
7:15 AM 33.8 °F 29.6 °F 19.4 °F 56% 30.12 in 10.0 mi South 4.6 mph - N/A   Clear
7:35 AM 35.6 °F 30.7 °F 19.4 °F 52% 30.14 in 10.0 mi SW 5.8 mph - N/A   Clear
7:55 AM 37.4 °F 30.3 °F 19.4 °F 48% 30.14 in 10.0 mi WSW 10.4 mph 19.6 mph N/A   Clear
8:15 AM 39.2 °F 34.2 °F 19.4 °F 45% 30.15 in 10.0 mi WSW 6.9 mph - N/A   Clear
8:35 AM 39.2 °F 33.0 °F 17.6 °F 42% 30.14 in 10.0 mi WSW 9.2 mph - N/A   Clear
8:55 AM 39.2 °F 35.9 °F 17.6 °F 42% 30.15 in 10.0 mi SW 4.6 mph - N/A   Clear
9:15 AM 42.8 °F - 15.8 °F 34% 30.16 in 10.0 mi Calm Calm - N/A   Clear
9:35 AM 42.8 °F 35.1 °F 14.0 °F 31% 30.17 in 10.0 mi West 16.1 mph 19.6 mph N/A   Clear
9:55 AM 44.6 °F 38.8 °F 15.8 °F 31% 30.16 in 10.0 mi West 11.5 mph 24.2 mph N/A   Clear
10:15 AM 44.6 °F 39.7 °F 17.6 °F 34% 30.17 in 10.0 mi West 9.2 mph - N/A   Clear
10:35 AM 44.6 °F 39.2 °F 17.6 °F 34% 30.17 in 10.0 mi West 10.4 mph 18.4 mph N/A   Clear
10:55 AM 46.4 °F 42.9 °F 15.8 °F 29% 30.18 in 10.0 mi West 6.9 mph 19.6 mph N/A   Clear
11:15 AM 46.4 °F 41.9 °F 17.6 °F 32% 30.18 in 10.0 mi West 9.2 mph 16.1 mph N/A   Clear
11:35 AM 46.4 °F 40.4 °F 15.8 °F 29% 30.18 in 10.0 mi West 13.8 mph 17.3 mph N/A   Clear
11:55 AM 46.4 °F 40.7 °F 15.8 °F 29% 30.18 in 10.0 mi West 12.7 mph 16.1 mph N/A   Clear
12:15 PM 46.4 °F 43.5 °F 17.6 °F 32% 30.17 in 10.0 mi WSW 5.8 mph - N/A   Clear
12:35 PM 48.2 °F - 17.6 °F 30% 30.17 in 10.0 mi WSW 5.8 mph 9.2 mph N/A   Clear
12:55 PM 48.2 °F - 17.6 °F 30% 30.16 in 10.0 mi WSW 8.1 mph - N/A   Clear
1:15 PM 46.4 °F 42.4 °F 19.4 °F 34% 30.15 in 10.0 mi WSW 8.1 mph - N/A   Clear
1:35 PM 46.4 °F 41.1 °F 19.4 °F 34% 30.15 in 10.0 mi SW 11.5 mph - N/A   Clear
1:55 PM 46.4 °F 41.5 °F 19.4 °F 34% 30.14 in 10.0 mi WSW 10.4 mph - N/A   Clear
2:15 PM 48.2 °F - 17.6 °F 30% 30.14 in 10.0 mi WSW 8.1 mph - N/A   Clear
2:35 PM 50.0 °F - 19.4 °F 30% 30.14 in 10.0 mi SW 6.9 mph - N/A   Clear
2:55 PM 48.2 °F - 21.2 °F 34% 30.13 in 10.0 mi SSW 8.1 mph - N/A   Clear
3:15 PM 48.2 °F - 21.2 °F 34% 30.13 in 10.0 mi SW 10.4 mph - N/A   Clear
3:35 PM 46.4 °F 42.9 °F 24.8 °F 43% 30.13 in 10.0 mi SSW 6.9 mph - N/A   Clear
3:55 PM 50.0 °F - 21.2 °F 32% 30.13 in 10.0 mi SSW 6.9 mph - N/A   Clear
4:15 PM 48.2 °F - 21.2 °F 34% 30.13 in 10.0 mi SW 9.2 mph - N/A   Clear
4:35 PM 48.2 °F - 21.2 °F 34% 30.12 in 10.0 mi SSW 8.1 mph - N/A   Clear
4:55 PM 46.4 °F 42.4 °F 21.2 °F 37% 30.12 in 10.0 mi SSW 8.1 mph - N/A   Clear
5:15 PM 44.6 °F 40.2 °F 23.0 °F 43% 30.11 in 10.0 mi SSW 8.1 mph - N/A   Clear
5:35 PM 44.6 °F 43.1 °F 23.0 °F 43% 30.11 in 10.0 mi WSW 3.5 mph - N/A   Clear
5:55 PM 46.4 °F - 21.2 °F 37% 30.11 in 10.0 mi Calm Calm - N/A   Clear
6:15 PM 44.6 °F 43.1 °F 21.2 °F 39% 30.11 in 10.0 mi SSW 3.5 mph - N/A   Clear
6:35 PM 42.8 °F 41.1 °F 23.0 °F 46% 30.11 in 10.0 mi SW 3.5 mph - N/A   Clear
6:55 PM 41.0 °F 39.0 °F 23.0 °F 49% 30.11 in 10.0 mi SW 3.5 mph - N/A   Clear
7:15 PM 41.0 °F - 23.0 °F 49% 30.11 in 10.0 mi Calm Calm - N/A   Clear
7:35 PM 41.0 °F - 21.2 °F 45% 30.10 in 10.0 mi Calm Calm - N/A   Clear
7:55 PM 37.4 °F - 23.0 °F 56% 30.10 in 10.0 mi Calm Calm - N/A   Clear
8:15 PM 37.4 °F - 24.8 °F 60% 30.09 in 10.0 mi Calm Calm - N/A   Clear
8:35 PM 35.6 °F - 24.8 °F 65% 30.09 in 10.0 mi Calm Calm - N/A   Clear
8:55 PM 37.4 °F - 24.8 °F 60% 30.09 in 10.0 mi Calm Calm - N/A   Clear
9:15 PM 35.6 °F - 24.8 °F 65% 30.08 in 10.0 mi Calm Calm - N/A   Clear
9:35 PM 37.4 °F - 24.8 °F 60% 30.08 in 10.0 mi Calm Calm - N/A   Clear
9:55 PM 35.6 °F - 23.0 °F 60% 30.07 in 10.0 mi Calm Calm - N/A   Clear
10:15 PM 37.4 °F - 21.2 °F 52% 30.07 in 10.0 mi Calm Calm - N/A   Clear
10:35 PM 35.6 °F - 24.8 °F 65% 30.06 in 10.0 mi Calm Calm - N/A   Clear
10:55 PM 35.6 °F - 24.8 °F 65% 30.06 in 10.0 mi Calm Calm - N/A   Clear
11:15 PM 33.8 °F - 24.8 °F 70% 30.06 in 10.0 mi Calm Calm - N/A   Clear
11:35 PM 33.8 °F - 24.8 °F 70% 30.07 in 10.0 mi Calm Calm - N/A   Clear
11:55 PM 35.6 °F - 24.8 °F 65% 30.06 in 10.0 mi Calm Calm - N/A   Clear